Total_Precipitation_Accumulation
1.88 2.10 2.06 1.95 2.03 2.15 2.35 2.51 2.58 2.38 2.24 2.09 1.79 1.63 1.68 1.73 1.91 1.75 1.74 1.59 1.29 1.16 1.11 1.08 1.06 1.12 1.25 1.45 1.63 1.78 2.00 2.21 2.38 2.53 2.65 2.82 3.00 3.15
2.00 2.18 2.14 2.05 2.10 2.15 2.30 2.55 2.79 2.77 2.40 1.97 1.80 1.76 1.86 1.79 1.97 1.73 1.67 1.70 1.43 1.21 1.11 1.11 1.09 1.09 1.15 1.30 1.46 1.60 1.74 1.86 2.02 2.16 2.25 2.32 2.41 2.59
1.90 2.04 2.11 2.21 2.24 2.24 2.38 2.50 2.73 2.96 2.68 2.16 2.05 2.06 2.17 2.15 2.04 1.79 1.57 1.49 1.34 1.29 1.14 1.07 1.06 1.08 1.14 1.20 1.33 1.46 1.55 1.64 1.81 1.97 2.12 2.23 2.27 2.30
1.93 2.05 1.98 2.13 2.28 2.26 2.38 2.39 2.49 2.79 2.70 2.45 2.39 2.33 2.32 2.22 2.22 2.02 1.70 1.54 1.47 1.43 1.22 1.10 1.07 1.05 1.09 1.12 1.22 1.38 1.50 1.58 1.63 1.67 1.74 1.89 2.08 2.24
1.95 1.95 1.91 2.10 2.11 2.22 2.35 2.32 2.29 2.44 2.62 2.57 2.52 2.59 2.54 2.42 2.34 2.16 1.98 1.91 1.61 1.53 1.44 1.32 1.29 1.26 1.24 1.22 1.22 1.29 1.40 1.54 1.65 1.74 1.80 1.89 1.97 2.05
1.95 1.91 1.88 1.92 1.96 2.04 2.17 2.26 2.32 2.44 2.56 2.60 2.64 2.76 2.73 2.76 2.72 2.49 2.37 2.29 1.97 1.61 1.60 1.50 1.43 1.34 1.25 1.17 1.15 1.20 1.30 1.49 1.66 1.75 1.82 1.90 1.97 1.99
2.01 1.92 1.79 1.80 1.86 1.90 1.87 1.97 2.11 2.25 2.28 2.37 2.45 2.66 2.73 2.83 2.83 2.68 2.55 2.52 2.33 1.91 1.74 1.61 1.54 1.43 1.39 1.35 1.25 1.20 1.24 1.37 1.56 1.69 1.75 1.81 1.88 1.89
2.04 1.98 1.83 1.73 1.70 1.67 1.57 1.59 1.67 1.78 1.96 2.18 2.26 2.45 2.65 2.81 3.01 3.07 2.91 2.72 2.57 2.28 2.15 2.02 1.76 1.67 1.49 1.35 1.32 1.14 1.04 1.09 1.19 1.31 1.43 1.56 1.67 1.81
1.92 1.92 1.69 1.54 1.62 1.55 1.58 1.54 1.53 1.64 1.73 1.96 2.14 2.24 2.46 2.66 2.90 3.05 3.04 2.92 2.73 2.57 2.43 2.30 1.98 1.77 1.56 1.43 1.34 1.09 0.94 0.87 0.88 0.94 1.02 1.16 1.29 1.42
1.76 1.79 1.76 1.69 1.68 1.72 1.64 1.52 1.44 1.51 1.60 1.57 1.62 1.78 2.04 2.40 2.58 2.62 2.77 2.79 2.66 2.48 2.42 2.39 2.14 1.92 1.71 1.57 1.47 1.17 0.99 0.89 0.83 0.81 0.83 0.89 1.01 1.13
1.60 1.63 1.65 1.60 1.67 1.55 1.45 1.43 1.42 1.46 1.44 1.42 1.38 1.42 1.56 1.78 2.11 2.27 2.36 2.33 2.22 1.98 1.87 1.95 1.93 1.90 1.82 1.69 1.50 1.32 1.10 0.97 0.90 0.88 0.87 0.87 0.93 1.02
1.62 1.59 1.53 1.40 1.37 1.31 1.30 1.41 1.39 1.38 1.42 1.36 1.27 1.20 1.16 1.31 1.62 1.80 1.89 1.93 1.83 1.77 1.51 1.49 1.54 1.59 1.71 1.58 1.41 1.33 1.25 1.22 1.12 0.99 0.93 0.92 1.02 0.99
1.58 1.57 1.47 1.39 1.22 1.18 1.17 1.21 1.23 1.21 1.28 1.31 1.28 1.25 1.26 1.26 1.30 1.44 1.64 1.76 1.73 1.54 1.40 1.42 1.44 1.47 1.48 1.45 1.38 1.30 1.30 1.35 1.31 1.26 1.21 1.18 1.22 1.19
1.55 1.51 1.50 1.38 1.17 1.10 1.03 1.02 1.04 0.97 1.00 1.11 1.10 1.05 1.06 1.06 1.09 1.23 1.43 1.58 1.67 1.53 1.41 1.46 1.48 1.42 1.38 1.27 1.20 1.12 1.11 1.24 1.40 1.52 1.48 1.48 1.45 1.51
1.40 1.44 1.38 1.24 1.04 0.90 0.89 0.86 0.80 0.78 0.87 0.97 0.98 0.91 0.88 0.92 1.02 1.17 1.32 1.46 1.51 1.44 1.32 1.34 1.38 1.37 1.34 1.23 1.08 1.00 1.01 1.05 1.14 1.34 1.54 1.65 1.64 1.64
1.36 1.32 1.20 1.13 0.98 0.89 0.89 0.82 0.75 0.81 0.90 0.93 0.97 0.97 0.94 0.95 0.99 1.05 1.16 1.27 1.35 1.28 1.20 1.19 1.29 1.37 1.31 1.15 1.11 1.01 0.96 0.98 0.95 1.06 1.34 1.64 1.86 1.95
1.53 1.46 1.34 1.23 1.09 0.99 0.98 1.00 1.00 1.06 1.04 1.03 1.08 1.13 1.09 1.02 0.99 1.02 1.15 1.20 1.17 1.10 1.09 1.12 1.19 1.33 1.33 1.20 1.12 1.03 1.01 0.96 0.90 0.96 1.14 1.32 1.56 1.81
1.41 1.34 1.31 1.23 1.15 1.14 1.17 1.19 1.18 1.19 1.15 1.16 1.18 1.21 1.20 1.11 1.02 1.01 1.11 1.17 1.12 1.06 1.04 1.06 1.20 1.38 1.42 1.28 0.98 0.89 0.92 0.94 0.95 1.09 1.19 1.18 1.24 1.34
1.33 1.34 1.31 1.29 1.22 1.20 1.23 1.23 1.19 1.18 1.22 1.23 1.24 1.25 1.29 1.29 1.24 1.17 1.15 1.20 1.18 1.15 1.10 1.12 1.20 1.27 1.24 1.09 0.94 0.75 0.80 0.89 1.02 1.13 1.22 1.17 1.11 1.16
1.24 1.30 1.29 1.27 1.24 1.22 1.19 1.21 1.21 1.23 1.23 1.22 1.26 1.29 1.35 1.36 1.38 1.30 1.22 1.19 1.22 1.25 1.24 1.18 1.12 1.09 1.09 1.05 1.00 0.94 0.84 0.95 1.06 1.11 1.15 1.18 1.14 1.10
1.20 1.20 1.16 1.12 1.10 1.11 1.10 1.09 1.09 1.11 1.13 1.20 1.20 1.21 1.27 1.27 1.24 1.21 1.22 1.22 1.22 1.29 1.20 1.03 0.97 1.06 1.24 1.41 1.25 1.01 0.96 0.96 1.06 1.14 1.20 1.28 1.28 1.27
1.13 1.10 1.09 1.06 1.06 1.06 1.08 1.06 1.06 1.07 1.11 1.20 1.21 1.21 1.24 1.23 1.18 1.18 1.23 1.24 1.21 1.20 1.22 1.19 1.28 1.36 1.42 1.41 1.23 1.07 1.11 1.18 1.19 1.20 1.19 1.15 1.16 1.13
1.05 1.02 1.01 0.96 0.96 0.96 0.98 1.01 1.05 1.10 1.13 1.17 1.21 1.23 1.27 1.25 1.21 1.22 1.26 1.30 1.30 1.32 1.44 1.47 1.42 1.39 1.33 1.33 1.31 1.24 1.25 1.37 1.46 1.45 1.36 1.16 0.91 0.75